Simultaneous Nadir Overpasses (SNOs) Predictions

Prediction of SNOs between AQUA and NOAA-19 Satellite Orbit:

Table of predicted SNOs for the next 14.0 days since TLE Epoch: 1/25/2014
Index Date (AQUA) Time (AQUA) Lat,Lon (AQUA) SZA (AQUA ) Date (NOAA-19) Time (NOAA-19) Lat,Lon (NOAA-19) SZA (NOAA-19 ) Distance(km) Time Diff (sec)
1 01/27/2014 02:07:29 72.44, 145.08 90.95 01/27/2014 02:06:42 72.43, 145.12 90.95 1.63 47
2 01/27/2014 02:56:17 -70.42, -43.95 91.16 01/27/2014 02:56:58 -70.42, -43.93 91.17 0.69 41
3 01/29/2014 06:51:55 72.85, 73.24 90.80 01/29/2014 06:50:54 72.84, 73.27 90.81 1.25 61
4 01/29/2014 07:40:43 -70.84,-115.64 91.31 01/29/2014 07:41:10 -70.83,-115.62 91.32 1.20 27
5 01/31/2014 11:36:56 75.08, -2.91 92.64 01/31/2014 11:35:42 75.00, -3.18 92.59 12.06 74
6 01/31/2014 12:25:16 -71.65, 171.97 91.07 01/31/2014 12:25:30 -71.66, 171.91 91.06 2.17 14
7 02/02/2014 17:09:34 -71.68, 100.85 91.66 02/02/2014 17:09:34 -71.68, 100.88 91.67 1.38 0
8 02/04/2014 21:53:59 -72.11, 29.04 91.86 02/04/2014 21:53:46 -72.11, 29.06 91.86 1.04 13
9 02/07/2014 02:38:20 -72.35, -42.46 92.28 02/07/2014 02:37:54 -72.34, -42.40 92.29 2.22 26




NCC Satellite Simultaneous Nadir Overpasses (SNOs) Prediction Service
